sat.trackr.live / text

‹ back to catalog

ONEWEB-0394

NORAD 50474 · 2021-132F

PAYLOAD ACTIVE UNKNOWN

§ Identity

Operator
Country
UK
Launch date
2021-12-27
Launch site
TYMSC
Launch vehicle
Mass (kg)
RCS (m²)

Purposes: comms

External: N2YO · Heavens-Above · Gunter

§ Orbital elements

Epoch: 2026-09-14T15:10:39.572544Z

Period
109.20 min
Inclination
87.9173°
Eccentricity
0.0002087
Mean motion
13.18686407 rev/d
Perigee alt
1,188.2 km
Apogee alt
1,191.3 km
Semi-major
7,567.9 km
B*
-3.3481e-6
RAAN
317.6740°
Arg perigee
99.9946°
Mean anomaly
260.1422°
Rev number
23,338

§ Raw data

ONEWEB-03941 50474U 21132F   26257.63240246  .00000012  00000+0 -33481-5 0  99952 50474  87.9173 317.6740 0002087  99.9946 260.1422 13.18686407233388

JSON: /api/v1/satellites/50474 · /tle

For live sub-satellite position, see the globe view (requires WebGL).

§ Visibility from observer

Set your observer location to see the next 7 days of passes ≥ 10°. The values pass through the URL so the page stays shareable.

No JS? Fill the form by hand. The geolocation button needs JavaScript.